Regional Weather Roundup
Issued by NWS

Home | Current Version | Previous Version | Text Only | Print | Product List | Glossary Off
Versions: 1 2 3 4 5 6 7 8 9 10 11 12 13 14 15 16 17 18 19 20 21 22 23 24 25 26 27 28 29 30 31 32 33 34 35 36 37 38 39 40 41 42 43 44 45 46 47 48 49 50

000
ASUS43 KTOP 181908
RWRKS

WEATHER ROUNDUP FOR KANSAS
NATIONAL WEATHER SERVICE GOODLAND KS
100 PM CST SAT NOV 18 2017

NOTE:  "FAIR" INDICATES FEW OR NO CLOUDS BELOW 12,000 FEET WITH NO
SIGNIFICANT WEATHER AND/OR OBSTRUCTIONS TO VISIBILITY.

KSZ001>006-013>018-027>032-041>047-182000-
NORTHWEST KANSAS

CITY           SKY/WX    TMP DP  RH WIND       PRES   REMARKS
GOODLAND       SUNNY     46  16  30 N24G35    30.21F
HAYS           SUNNY     52  27  38 N30G36    30.14F
HILL CITY      SUNNY     51  25  36 NW22G33   30.18F
RUSSELL        LGT RAIN  52  30  43 N28G38    30.12F
$$

KSZ061>065-074>080-084>089-182000-
SOUTHWEST KANSAS

CITY           SKY/WX    TMP DP  RH WIND       PRES   REMARKS
DODGE CITY     SUNNY     51  22  31 N29G41    30.18F
ELKHART        SUNNY     52  20  29 N23G33    30.26S
GARDEN CITY    SUNNY     50  18  28 N29G40    30.21S
GREAT BEND     SUNNY     52  30  43 N30G36    30.13F
LIBERAL        SUNNY     53  17  24 N29       30.23F
PRATT          MOSUNNY   52  31  44 N24G36    30.13F
$$

KSZ066>073-081>083-090>101-182000-
SOUTHEAST KANSAS

CITY           SKY/WX    TMP DP  RH WIND       PRES   REMARKS
CHANUTE        CLOUDY    48  30  49 NW16G31   30.01R
COFFEYVILLE    CLOUDY    50  33  52 NW25G40   30.04R
HUTCHINSON     MOSUNNY   54  38  54 NW23G32   30.09F
MEDICINE LODGE   N/A     55  35  47 N20G38    30.11F
NEWTON         PTSUNNY   51  37  58 NW22G31   30.07F
PARSONS        LGT RAIN  49  31  49 N25G38    30.04R
WICHITA INTL   MOSUNNY   53  36  52 NW26G37   30.09F
WICHITA JABRA  MOSUNNY   53  38  56 NW21      30.07F
WICHITA MCCONL PTSUNNY   52  35  52 N20G33    30.08F
WINFIELD       CLOUDY    52  36  54 NW23G31   30.10F
$$

KSZ007>012-019>026-033>040-048>060-102>105-182000-
NORTHEAST KANSAS

CITY           SKY/WX    TMP DP  RH WIND       PRES   REMARKS
CONCORDIA      SUNNY     52  31  44 NW24G33   30.07S
EMPORIA        CLOUDY    49  35  58 NW22G37   30.02S
LAWRENCE       CLOUDY    48  30  49 NW22G30   29.97R
MANHATTAN      PTSUNNY   53  37  54 NW9G24    30.05R
MARYSVILLE     PTSUNNY   50  34  53 N26G36    30.02S
OLATHE IND     LGT RAIN  46  34  62 NW21G30   29.95R
OLATHE EXE     CLOUDY    45  33  63 NW17G28   29.93R
SALINA         MOSUNNY   56  33  42 N31G40    30.07F
TOPEKA BILLARD CLOUDY    50  37  61 NW21G29   29.99R
TOPEKA FORBES  CLOUDY    50  37  61 NW24G33   29.99R
$$




USA.gov is the U.S. government's official web portal to all federal, state and local government web resources and services.